Location: Newark
(40.9833°N, 0.0333°W)
Time: 20:19:20
(UTC+00:00)

Envisat - Visible Passes

Search period start: 21 September 2020 00:00
Search period end: 01 October 2020 00:00
Orbit: 764 x 766 km, 98.1° (Epoch: 21 September)

Date Brightness Start Highest point End Pass type
(mag) Time Alt. Az. Time Alt. Az. Time Alt. Az.
22 Sep 5.9 18:17:38 10° SW 18:21:35 23° W 18:25:34 10° NW visible
23 Sep 6.2 04:48:08 10° ENE 04:50:51 14° E 04:53:33 10° ESE visible
24 Sep 6.4 18:45:07 10° WSW 18:47:18 13° W 18:49:29 10° WNW visible
25 Sep 5.6 05:12:20 10° NE 05:16:32 25° E 05:20:41 10° SSE visible
26 Sep 6.6 04:38:02 10° ENE 04:39:21 11° E 04:40:40 10° ESE visible
27 Sep 6.2 18:32:40 10° SW 18:35:48 16° W 18:38:58 10° NW visible
28 Sep 6.0 05:01:22 10° NE 05:05:04 20° E 05:08:46 10° SE visible
30 Sep 5.0 05:26:04 10° NNE 05:30:42 35° E 05:35:19 10° SSE visible
30 Sep 6.0 18:20:34 10° SW 18:24:20 21° W 18:28:08 10° NW visible
